Regional Weather Roundup
Issued by NWS

Home | Current Version | Previous Version | Text Only | Print | Product List | Glossary Off
Versions: 1 2 3 4 5 6 7 8 9 10 11 12 13 14 15 16 17 18 19 20 21 22 23 24 25 26 27 28 29 30 31 32 33 34 35 36 37 38 39 40 41 42 43 44 45 46 47 48 49 50

000
ASUS43 KLMK 272310
RWRKY
KENTUCKY REGIONAL WEATHER ROUNDUP
NATIONAL WEATHER SERVICE LOUISVILLE KY
700 PM EDT SUN JUL 27 2014

NOTE "FAIR" INDICATES FEW OR NO CLOUDS BELOW 12,000 FEET
WITH NO SIGNIFICANT WEATHER AND/OR OBSTRUCTIONS TO VISIBILITY.

KYZ001>023-026-027-061>063-070>075-280000-
WESTERN AND SOUTH CENTRAL KENTUCKY

CITY           SKY/WX    TMP DP  RH WIND       PRES   REMARKS
PADUCAH        MOSUNNY   91  75  59 NW10      29.85R HX 101
HENDERSON      SUNNY     88  70  55 W10       29.82R HX  92
OWENSBORO      SUNNY     88  72  58 NW14G23   29.82R HX  94
HOPKINSVILLE   PTSUNNY   91  75  60 W20       29.84F HX 102
BOWLING GREEN  SUNNY     92  72  51 W17G25    29.80S HX  99
GLASGOW        MOSUNNY   91  69  49 W10G21    29.79S HX  95
$$

KYZ024-025-028>034-038-045-046-053-280000-
NORTH CENTRAL KENTUCKY

CITY           SKY/WX    TMP DP  RH WIND       PRES   REMARKS
LOUISVILLE/SDF MOSUNNY   88  72  58 W22G30    29.76R HX  94
LOUISVILLE/LOU MOSUNNY   88  71  57 W17G26    29.76R HX  94
FORT KNOX      MOSUNNY   85  74  68 W13       29.78R HX  93
$$

KYZ035>037-039>044-047>052-055>060-089>105-280000-
NORTHEAST KENTUCKY

CITY           SKY/WX    TMP DP  RH WIND       PRES   REMARKS
LEXINGTON      SUNNY     86  75  69 W10G24    29.77R HX  95
COVINGTON      PTSUNNY   82  73  74 W14G23    29.72R
FRANKFORT      MOSUNNY   85  73  67 W7        29.75R HX  91
$$

KYZ054-064>069-076>088-106>120-280000-
SOUTHEAST KENTUCKY

CITY           SKY/WX    TMP DP  RH WIND       PRES   REMARKS
JACKSON        PTSUNNY   73  71  93 VRB3      29.83F FOG
LONDON         CLOUDY    77  69  76 S7        29.84F
SOMERSET       PTSUNNY   75  75 100 SE3       29.83F
MIDDLESBORO    CLOUDY    73  66  78 W7G21     29.87S
MONTICELLO     MOCLDY    79  74  84 VRB5      29.84S
$$



USA.gov is the U.S. government's official web portal to all federal, state and local government web resources and services.